Regional Weather Roundup
Issued by NWS

Home | Current Version | Previous Version | Graphics & Text | Print | Product List | Glossary On
Versions: 1 2 3 4 5 6 7 8 9 10 11 12 13 14 15 16 17 18 19 20 21 22 23 24 25 26 27 28 29 30 31 32 33 34 35 36 37 38 39 40 41 42 43 44 45 46 47 48 49 50
300
ASUS44 KLIX 170707
RWRLA
LOUISIANA WEATHER ROUNDUP
NATIONAL WEATHER SERVICE NEW ORLEANS LA
200 AM CDT FRI APR 17 2015

NOTE: "FAIR" INDICATES FEW OR NO CLOUDS BELOW 12,000 FEET WITH NO
      SIGNIFICANT WEATHER AND/OR OBSTRUCTIONS TO VISIBILITY.
      SKY/WX - SKY CONDITION AND SIGNIFICANT WEATHER.
      TMP - AIR TEMPERATURE.    DP   - DEWPOINT TEMPERATURE.
      RH  - RELATIVE HUMIDITY.  PRES - PRESSURE.
      HX  - HEAT INDEX.         WCI  - WIND CHILL INDEX.

*  THESE STATIONS ARE NOT NWS OR FAA STATIONS AND ARE NOT UNDER
   NWS QUALITY CONTROL.

LAZ040-048-061>063-065-066-069-170800-
SOUTHEAST LOUISIANA

CITY           SKY/WX    TMP DP  RH WIND       PRES   REMARKS
N.O. AUDUBON     N/A     70  70  98 MISG        N/A
N.O. INTL ARPT CLOUDY    70  66  87 SE12      30.02F
N.O. LAKEFRONT LGT RAIN  72  67  84 SE9       30.03S
SLIDELL        LGT RAIN  71  70  96 SE7       30.01F
BATON ROUGE    CLOUDY    68  67  96 CALM      30.03F
BOOTHVILLE     RAIN      69  69 100 NE8       30.00F FOG
BELLE CHASSE   LGT RAIN  69  66  90 SE5       30.04F
BOGALUSA*      RAIN      69  66  89 CALM      30.03F
GALLIANO*      LGT RAIN  67  66  97 NE7       30.04F
NEW ROADS*     CLOUDY    66  65  97 N3        30.04S
GONZALES*      PTSUNNY   68  68 100 CALM      30.03R
HAMMOND*       CLOUDY    68  66  94 CALM      30.02F
HOUMA*         LGT RAIN  67  67  98 E10       30.02F
PORT FOURCHON* CLOUDY    70  68  94 NE10      30.05S FOG

$$

LAZ041-044-053-054-170800-
SOUTHWEST LOUISIANA

CITY           SKY/WX    TMP DP  RH WIND       PRES   REMARKS
LAKE CHARLES   RAIN      66  64  93 E9        30.04F FOG
LAFAYETTE      HVY RAIN  68  68 100 NW12      30.07R FOG
PATTERSON      CLOUDY    68  64  88 E6        30.02S
SALT POINT       N/A     69  67  93 CALM      30.00F
NEW IBERIA     CLOUDY    69  67  93 N8        30.06R
CHENAULT AIRPK RAIN      65  64  97 SE6       30.05F

$$

LAZ027-028-170800-
CENTRAL LOUISIANA

CITY           SKY/WX    TMP DP  RH WIND       PRES   REMARKS
FORT POLK      NOT AVBL
ALEXANDRIA INT LGT RAIN  65  64  97 S10       30.00F
ALEXANDRIA     LGT RAIN  65  64  97 SE14      29.99F

$$

LAZ001-002-170800-
NORTHWEST LOUISIANA

CITY           SKY/WX    TMP DP  RH WIND       PRES   REMARKS
SHREVEPORT     CLOUDY    64  62  93 S10       29.96R
BARKSDALE AFB  NOT AVBL
DTN SHREVEPORT CLOUDY    63  61  93 SE5       29.94R

$$

LAZ014-016-170800-
NORTHEAST LOUISIANA

CITY           SKY/WX    TMP DP  RH WIND       PRES   REMARKS
MONROE         CLOUDY    66  65  96 SE5       30.01F
TALLULAH       CLOUDY    67  64  90 CALM      30.02F

$$




USA.gov is the U.S. government's official web portal to all federal, state and local government web resources and services.